Time,TemperatureF,DewpointF,PressureIn,WindDirection,WindDirectionDegrees,WindSpeedMPH,WindSpeedGustMPH,Humidity,HourlyPrecipIn,Conditions,Clouds,dailyrainin,SoftwareType,DateUTC
2013-10-07 00:02:00,59.5,55.6,29.80,WSW,240,0.0,6.9,87,0.03,,,0.00,meteobridge,2013-10-07 04:02:00,
2013-10-07 00:07:00,59.2,55.6,29.80,WSW,251,0.0,2.9,88,0.04,,,0.01,meteobridge,2013-10-07 04:07:00,
2013-10-07 00:13:00,58.8,55.6,29.80,West,281,0.0,2.0,89,0.05,,,0.02,meteobridge,2013-10-07 04:13:00,
2013-10-07 00:18:00,58.6,55.8,29.81,SSW,202,0.0,2.9,90,0.06,,,0.03,meteobridge,2013-10-07 04:18:00,
2013-10-07 00:23:00,58.5,55.8,29.81,WSW,257,0.0,2.9,91,0.05,,,0.03,meteobridge,2013-10-07 04:23:00,
2013-10-07 00:28:00,58.1,55.4,29.81,West,271,0.9,0.9,91,0.05,,,0.03,meteobridge,2013-10-07 04:28:00,
2013-10-07 00:33:00,57.9,55.2,29.80,SW,220,2.0,4.0,91,0.06,,,0.04,meteobridge,2013-10-07 04:33:00,
2013-10-07 00:38:00,57.6,55.2,29.80,WSW,248,0.0,6.0,92,0.07,,,0.05,meteobridge,2013-10-07 04:38:00,
2013-10-07 00:43:00,57.2,54.9,29.80,SSW,203,2.0,12.1,92,0.08,,,0.06,meteobridge,2013-10-07 04:43:00,
2013-10-07 00:48:00,56.7,54.7,29.82,WSW,254,2.9,4.9,93,0.10,,,0.08,meteobridge,2013-10-07 04:48:00,
2013-10-07 00:53:00,56.5,54.5,29.82,West,274,0.0,6.9,93,0.12,,,0.10,meteobridge,2013-10-07 04:53:00,
2013-10-07 00:58:00,56.1,54.1,29.82,South,191,0.9,4.9,93,0.11,,,0.11,meteobridge,2013-10-07 04:58:00,
2013-10-07 01:03:00,55.9,54.3,29.82,SSW,210,2.9,4.0,94,0.11,,,0.12,meteobridge,2013-10-07 05:03:00,
2013-10-07 01:08:00,55.9,54.3,29.82,SSW,209,0.9,6.9,94,0.12,,,0.13,meteobridge,2013-10-07 05:08:00,
2013-10-07 01:13:00,55.9,54.5,29.82,SSW,210,0.9,2.9,95,0.12,,,0.14,meteobridge,2013-10-07 05:13:00,
2013-10-07 01:18:00,55.8,54.3,29.82,West,270,2.9,6.0,95,0.12,,,0.15,meteobridge,2013-10-07 05:18:00,
2013-10-07 01:23:00,55.8,54.3,29.82,SSW,209,4.9,6.0,95,0.13,,,0.16,meteobridge,2013-10-07 05:23:00,
2013-10-07 01:28:00,55.6,54.1,29.82,West,265,0.0,6.9,95,0.14,,,0.17,meteobridge,2013-10-07 05:28:00,
2013-10-07 01:34:00,55.6,54.5,29.83,WSW,258,0.0,0.9,96,0.14,,,0.18,meteobridge,2013-10-07 05:34:00,
2013-10-07 01:39:00,55.6,54.5,29.83,SW,226,0.9,4.9,96,0.13,,,0.18,meteobridge,2013-10-07 05:39:00,
2013-10-07 01:44:00,55.6,54.5,29.83,SW,227,0.0,4.0,96,0.12,,,0.19,meteobridge,2013-10-07 05:44:00,
2013-10-07 01:49:00,55.6,54.5,29.83,SW,219,2.0,4.9,96,0.10,,,0.19,meteobridge,2013-10-07 05:49:00,
2013-10-07 01:54:00,55.6,54.5,29.83,SW,223,0.9,2.0,96,0.10,,,0.20,meteobridge,2013-10-07 05:54:00,
2013-10-07 02:00:00,55.6,54.7,29.82,SW,223,0.0,2.0,97,0.10,,,0.21,meteobridge,2013-10-07 06:00:00,
2013-10-07 02:05:00,55.6,54.7,29.82,SW,223,0.0,0.9,97,0.10,,,0.22,meteobridge,2013-10-07 06:05:00,
2013-10-07 02:10:00,55.6,54.7,29.82,SW,223,0.9,2.0,97,0.10,,,0.24,meteobridge,2013-10-07 06:10:00,
2013-10-07 02:15:00,55.4,54.5,29.82,West,272,0.0,2.9,97,0.11,,,0.25,meteobridge,2013-10-07 06:15:00,
2013-10-07 02:20:00,55.2,54.3,29.82,South,175,0.9,2.0,97,0.11,,,0.26,meteobridge,2013-10-07 06:20:00,
2013-10-07 02:25:00,55.0,54.1,29.82,West,267,4.0,6.0,97,0.10,,,0.26,meteobridge,2013-10-07 06:25:00,
2013-10-07 02:30:00,55.0,54.1,29.84,SW,226,4.9,6.9,97,0.11,,,0.28,meteobridge,2013-10-07 06:30:00,
2013-10-07 02:35:00,55.0,54.1,29.84,West,268,2.9,6.0,97,0.11,,,0.29,meteobridge,2013-10-07 06:35:00,
2013-10-07 02:40:00,55.0,54.1,29.84,SSE,167,0.0,6.0,97,0.12,,,0.30,meteobridge,2013-10-07 06:40:00,
2013-10-07 02:45:00,55.0,54.1,29.84,South,184,2.0,2.0,97,0.12,,,0.31,meteobridge,2013-10-07 06:45:00,
2013-10-07 02:50:00,54.9,54.0,29.84,WSW,247,2.0,6.0,97,0.12,,,0.32,meteobridge,2013-10-07 06:50:00,
2013-10-07 02:55:00,54.7,53.8,29.84,South,171,0.0,2.9,97,0.13,,,0.34,meteobridge,2013-10-07 06:55:00,
2013-10-07 03:00:00,54.5,54.0,29.84,WSW,254,0.0,2.9,98,0.13,,,0.35,meteobridge,2013-10-07 07:00:00,
2013-10-07 03:05:00,54.5,54.0,29.84,SW,219,0.9,4.9,98,0.14,,,0.36,meteobridge,2013-10-07 07:05:00,
2013-10-07 03:10:00,54.3,53.8,29.84,SW,232,2.0,2.9,98,0.14,,,0.38,meteobridge,2013-10-07 07:10:00,
2013-10-07 03:15:00,54.3,53.8,29.85,WSW,251,0.0,2.9,98,0.14,,,0.39,meteobridge,2013-10-07 07:15:00,
2013-10-07 03:20:00,54.1,53.6,29.85,SW,230,0.0,0.9,98,0.14,,,0.40,meteobridge,2013-10-07 07:20:00,
2013-10-07 03:25:00,54.1,53.6,29.85,WSW,248,2.0,2.0,98,0.14,,,0.41,meteobridge,2013-10-07 07:25:00,
2013-10-07 03:31:00,54.1,53.6,29.85,WSW,253,0.0,2.0,98,0.14,,,0.42,meteobridge,2013-10-07 07:31:00,
2013-10-07 03:36:00,54.1,53.6,29.85,WSW,256,0.0,0.0,98,0.12,,,0.42,meteobridge,2013-10-07 07:36:00,
2013-10-07 03:41:00,54.1,53.6,29.85,SW,222,0.0,2.0,98,0.13,,,0.43,meteobridge,2013-10-07 07:41:00,
2013-10-07 03:46:00,54.1,53.6,29.83,SW,222,0.0,0.0,98,0.12,,,0.43,meteobridge,2013-10-07 07:46:00,
2013-10-07 03:51:00,54.1,53.6,29.83,SW,222,0.0,2.0,98,0.10,,,0.43,meteobridge,2013-10-07 07:51:00,
2013-10-07 03:56:00,54.1,53.6,29.83,SW,222,0.0,0.9,98,0.10,,,0.44,meteobridge,2013-10-07 07:56:00,
2013-10-07 04:01:00,54.1,53.6,29.83,SW,222,0.0,0.0,98,0.11,,,0.46,meteobridge,2013-10-07 08:01:00,
2013-10-07 04:06:00,54.1,53.6,29.83,SW,222,0.0,0.9,98,0.09,,,0.46,meteobridge,2013-10-07 08:06:00,
2013-10-07 04:11:00,54.1,53.6,29.83,SW,222,0.9,0.9,98,0.07,,,0.46,meteobridge,2013-10-07 08:11:00,
2013-10-07 04:17:00,54.1,53.6,29.83,SW,222,0.0,0.0,98,0.07,,,0.47,meteobridge,2013-10-07 08:17:00,
2013-10-07 04:22:00,54.1,53.6,29.83,SW,222,0.0,0.0,98,0.06,,,0.47,meteobridge,2013-10-07 08:22:00,
2013-10-07 04:27:00,54.1,53.6,29.83,SW,222,0.0,0.9,98,0.05,,,0.47,meteobridge,2013-10-07 08:27:00,
2013-10-07 04:32:00,54.1,53.6,29.83,SW,222,0.0,0.0,98,0.05,,,0.47,meteobridge,2013-10-07 08:32:00,
2013-10-07 04:38:00,54.1,53.6,29.83,SW,222,0.0,0.0,98,0.04,,,0.47,meteobridge,2013-10-07 08:38:00,
2013-10-07 04:43:00,54.1,53.8,29.83,SW,222,0.0,0.0,99,0.04,,,0.47,meteobridge,2013-10-07 08:43:00,
2013-10-07 04:48:00,54.1,53.8,29.83,SW,222,0.0,0.0,99,0.04,,,0.47,meteobridge,2013-10-07 08:48:00,
2013-10-07 04:53:00,54.1,53.8,29.83,SW,222,0.0,0.0,99,0.03,,,0.47,meteobridge,2013-10-07 08:53:00,
2013-10-07 04:58:00,54.1,53.8,29.83,SW,222,0.0,0.0,99,0.03,,,0.48,meteobridge,2013-10-07 08:58:00,
2013-10-07 05:03:00,54.1,53.8,29.83,SW,222,0.9,2.0,99,0.02,,,0.48,meteobridge,2013-10-07 09:03:00,
2013-10-07 05:14:00,54.3,54.0,29.83,SW,223,0.0,0.0,99,0.01,,,0.48,meteobridge,2013-10-07 09:14:00,
2013-10-07 05:19:00,54.3,54.0,29.84,SW,223,2.9,2.9,99,0.01,,,0.48,meteobridge,2013-10-07 09:19:00,
2013-10-07 05:24:00,54.3,54.0,29.84,SW,223,0.0,0.0,99,0.01,,,0.48,meteobridge,2013-10-07 09:24:00,
2013-10-07 05:29:00,54.3,54.0,29.84,WSW,258,4.0,4.0,99,0.01,,,0.48,meteobridge,2013-10-07 09:29:00,
2013-10-07 05:34:00,54.3,54.0,29.84,West,277,2.9,6.0,99,0.01,,,0.48,meteobridge,2013-10-07 09:34:00,
2013-10-07 05:39:00,54.1,53.8,29.84,West,277,0.0,0.0,99,0.01,,,0.48,meteobridge,2013-10-07 09:39:00,
2013-10-07 05:44:00,53.8,53.2,29.84,West,280,0.0,2.0,98,0.01,,,0.48,meteobridge,2013-10-07 09:44:00,
2013-10-07 05:49:00,53.6,53.1,29.85,West,280,0.0,2.0,98,0.01,,,0.48,meteobridge,2013-10-07 09:49:00,
2013-10-07 05:54:00,53.6,53.2,29.85,WSW,250,0.9,4.9,99,0.01,,,0.48,meteobridge,2013-10-07 09:54:00,
2013-10-07 05:59:00,53.6,53.1,29.84,WSW,251,0.0,0.9,98,0.00,,,0.48,meteobridge,2013-10-07 09:59:00,
2013-10-07 06:04:00,53.4,52.9,29.84,WNW,291,2.9,4.9,98,0.00,,,0.48,meteobridge,2013-10-07 10:04:00,
2013-10-07 06:09:00,53.2,52.7,29.84,WSW,244,0.0,2.0,98,0.00,,,0.48,meteobridge,2013-10-07 10:09:00,
2013-10-07 06:15:00,53.4,52.9,29.85,WSW,244,0.0,0.0,98,0.00,,,0.48,meteobridge,2013-10-07 10:15:00,
2013-10-07 06:20:00,53.4,52.9,29.85,WSW,246,2.0,2.9,98,0.00,,,0.48,meteobridge,2013-10-07 10:20:00,
2013-10-07 06:25:00,53.2,52.7,29.85,WSW,246,0.0,2.0,98,0.00,,,0.48,meteobridge,2013-10-07 10:25:00,
2013-10-07 06:30:00,53.2,52.7,29.85,WNW,287,0.0,6.0,98,0.00,,,0.48,meteobridge,2013-10-07 10:30:00,
2013-10-07 06:35:00,53.2,52.7,29.85,WNW,287,0.0,0.0,98,0.00,,,0.48,meteobridge,2013-10-07 10:35:00,
2013-10-07 06:40:00,53.2,52.7,29.85,West,267,2.0,4.0,98,0.00,,,0.48,meteobridge,2013-10-07 10:40:00,
2013-10-07 06:45:00,53.2,52.7,29.85,West,267,0.0,0.9,98,0.00,,,0.48,meteobridge,2013-10-07 10:45:00,
2013-10-07 06:50:00,53.2,52.7,29.85,West,267,0.0,2.9,98,0.00,,,0.48,meteobridge,2013-10-07 10:50:00,
2013-10-07 06:55:00,53.2,52.7,29.85,West,265,0.0,2.0,98,0.00,,,0.48,meteobridge,2013-10-07 10:55:00,
2013-10-07 07:00:00,53.2,52.7,29.86,West,265,0.0,0.0,98,0.00,,,0.48,meteobridge,2013-10-07 11:00:00,
2013-10-07 07:06:00,53.2,52.7,29.86,West,265,0.9,0.9,98,0.00,,,0.48,meteobridge,2013-10-07 11:06:00,
2013-10-07 07:11:00,53.1,52.2,29.86,West,265,0.0,0.0,97,0.00,,,0.48,meteobridge,2013-10-07 11:11:00,
2013-10-07 07:16:00,52.9,52.0,29.87,West,265,0.0,0.9,97,0.00,,,0.48,meteobridge,2013-10-07 11:16:00,
2013-10-07 07:21:00,52.9,52.0,29.87,West,265,0.0,0.0,97,0.00,,,0.48,meteobridge,2013-10-07 11:21:00,
2013-10-07 07:26:00,52.9,52.0,29.87,West,265,0.0,0.0,97,0.00,,,0.48,meteobridge,2013-10-07 11:26:00,
2013-10-07 07:32:00,52.5,51.6,29.88,West,265,0.0,0.0,97,0.00,,,0.48,meteobridge,2013-10-07 11:32:00,
2013-10-07 07:37:00,52.3,51.4,29.88,West,265,0.0,0.0,97,0.00,,,0.48,meteobridge,2013-10-07 11:37:00,
2013-10-07 07:43:00,52.3,51.4,29.88,West,265,0.0,0.0,97,0.00,,,0.48,meteobridge,2013-10-07 11:43:00,
2013-10-07 07:48:00,52.2,51.3,29.89,West,265,0.0,0.9,97,0.00,,,0.48,meteobridge,2013-10-07 11:48:00,
2013-10-07 07:53:00,52.2,51.3,29.89,West,265,0.0,0.0,97,0.00,,,0.48,meteobridge,2013-10-07 11:53:00,
2013-10-07 07:58:00,52.2,51.3,29.89,West,265,2.0,2.0,97,0.00,,,0.48,meteobridge,2013-10-07 11:58:00,
2013-10-07 08:03:00,52.0,51.1,29.89,WNW,289,2.0,2.9,97,0.00,,,0.48,meteobridge,2013-10-07 12:03:00,
2013-10-07 08:08:00,52.2,51.3,29.89,WNW,289,0.0,2.0,97,0.00,,,0.48,meteobridge,2013-10-07 12:08:00,
2013-10-07 08:13:00,52.0,51.1,29.89,WNW,289,0.0,0.9,97,0.00,,,0.48,meteobridge,2013-10-07 12:13:00,
2013-10-07 08:18:00,52.0,51.1,29.90,WNW,289,0.0,0.9,97,0.00,,,0.48,meteobridge,2013-10-07 12:18:00,
2013-10-07 08:23:00,52.0,51.1,29.90,WNW,292,0.9,2.9,97,0.00,,,0.48,meteobridge,2013-10-07 12:23:00,
2013-10-07 08:28:00,52.0,50.9,29.90,WNW,292,0.0,0.9,96,0.00,,,0.48,meteobridge,2013-10-07 12:28:00,
2013-10-07 08:33:00,52.0,50.9,29.91,WNW,292,0.9,0.9,96,0.00,,,0.48,meteobridge,2013-10-07 12:33:00,
2013-10-07 08:38:00,52.2,51.1,29.91,West,263,4.0,4.0,96,0.00,,,0.48,meteobridge,2013-10-07 12:38:00,
2013-10-07 08:44:00,52.2,51.1,29.91,West,263,0.9,2.0,96,0.00,,,0.48,meteobridge,2013-10-07 12:44:00,
2013-10-07 08:49:00,52.0,50.9,29.92,West,278,2.9,6.9,96,0.00,,,0.48,meteobridge,2013-10-07 12:49:00,
2013-10-07 08:54:00,52.0,50.9,29.92,West,263,2.9,4.9,96,0.00,,,0.48,meteobridge,2013-10-07 12:54:00,
2013-10-07 08:59:00,52.0,50.5,29.92,SW,219,0.0,2.9,95,0.00,,,0.48,meteobridge,2013-10-07 12:59:00,
2013-10-07 09:04:00,52.0,50.4,29.92,West,260,0.9,6.0,94,0.00,,,0.48,meteobridge,2013-10-07 13:04:00,
2013-10-07 09:09:00,52.5,50.2,29.92,WSW,256,0.9,4.9,92,0.00,,,0.48,meteobridge,2013-10-07 13:09:00,
2013-10-07 09:14:00,52.5,49.6,29.92,WSW,258,0.0,0.0,90,0.00,,,0.48,meteobridge,2013-10-07 13:14:00,
2013-10-07 09:19:00,52.5,49.1,29.92,West,263,0.0,0.9,88,0.00,,,0.48,meteobridge,2013-10-07 13:19:00,
2013-10-07 09:24:00,52.5,49.1,29.92,West,263,0.0,2.0,88,0.00,,,0.48,meteobridge,2013-10-07 13:24:00,
2013-10-07 09:29:00,52.5,48.7,29.92,West,260,0.9,6.9,87,0.00,,,0.48,meteobridge,2013-10-07 13:29:00,
2013-10-07 09:34:00,52.9,48.7,29.92,WSW,256,0.9,2.9,86,0.00,,,0.48,meteobridge,2013-10-07 13:34:00,
2013-10-07 09:39:00,53.2,48.6,29.92,WSW,256,2.9,4.0,84,0.00,,,0.48,meteobridge,2013-10-07 13:39:00,
2013-10-07 09:44:00,54.0,48.6,29.93,West,263,4.0,4.9,82,0.00,,,0.48,meteobridge,2013-10-07 13:44:00,
2013-10-07 09:49:00,54.3,48.0,29.93,WSW,251,0.0,6.0,79,0.00,,,0.48,meteobridge,2013-10-07 13:49:00,
2013-10-07 09:55:00,54.9,48.2,29.93,WSW,258,0.0,2.0,78,0.00,,,0.48,meteobridge,2013-10-07 13:55:00,
2013-10-07 10:00:00,55.0,47.7,29.94,West,277,2.9,6.0,76,0.00,,,0.48,meteobridge,2013-10-07 14:00:00,
2013-10-07 10:05:00,55.2,47.1,29.94,South,191,0.9,6.0,74,0.00,,,0.48,meteobridge,2013-10-07 14:05:00,
2013-10-07 10:10:00,55.0,46.2,29.94,SW,234,2.0,6.0,72,0.00,,,0.48,meteobridge,2013-10-07 14:10:00,
2013-10-07 10:15:00,54.9,46.4,29.95,WNW,285,2.0,2.9,73,0.00,,,0.48,meteobridge,2013-10-07 14:15:00,
2013-10-07 10:20:00,55.0,46.6,29.95,South,188,4.0,8.1,73,0.00,,,0.48,meteobridge,2013-10-07 14:20:00,
2013-10-07 10:25:00,54.5,45.0,29.95,SSW,206,2.0,6.0,70,0.00,,,0.48,meteobridge,2013-10-07 14:25:00,
2013-10-07 10:30:00,54.3,44.4,29.96,West,260,0.0,10.1,69,0.00,,,0.48,meteobridge,2013-10-07 14:30:00,
2013-10-07 10:35:00,55.0,45.1,29.96,South,185,0.0,6.0,69,0.00,,,0.48,meteobridge,2013-10-07 14:35:00,
2013-10-07 10:40:00,55.9,45.9,29.96,WSW,254,2.0,6.9,69,0.00,,,0.48,meteobridge,2013-10-07 14:40:00,
2013-10-07 10:45:00,56.5,46.0,29.96,WSW,237,0.0,2.9,68,0.00,,,0.48,meteobridge,2013-10-07 14:45:00,
2013-10-07 10:50:00,57.0,45.3,29.96,South,181,2.0,6.0,65,0.00,,,0.48,meteobridge,2013-10-07 14:50:00,
2013-10-07 10:55:00,57.4,45.7,29.96,West,270,4.9,13.0,65,0.00,,,0.48,meteobridge,2013-10-07 14:55:00,
2013-10-07 11:00:00,57.7,45.3,29.96,WNW,301,4.0,11.0,63,0.00,,,0.48,meteobridge,2013-10-07 15:00:00,
2013-10-07 11:05:00,57.9,45.0,29.96,West,268,6.0,8.1,62,0.00,,,0.48,meteobridge,2013-10-07 15:05:00,
2013-10-07 11:10:00,58.3,46.2,29.96,SSW,192,0.0,6.0,64,0.00,,,0.48,meteobridge,2013-10-07 15:10:00,
2013-10-07 11:16:00,58.6,45.7,29.96,SSW,196,0.0,2.9,62,0.00,,,0.48,meteobridge,2013-10-07 15:16:00,
2013-10-07 11:21:00,58.8,45.3,29.96,WSW,239,0.0,6.0,61,0.00,,,0.48,meteobridge,2013-10-07 15:21:00,
2013-10-07 11:26:00,59.4,45.9,29.96,SSE,154,0.0,8.1,61,0.00,,,0.48,meteobridge,2013-10-07 15:26:00,
2013-10-07 11:31:00,59.5,46.0,29.96,West,271,0.0,6.9,61,0.00,,,0.48,meteobridge,2013-10-07 15:31:00,
2013-10-07 11:36:00,59.9,46.8,29.96,West,270,0.0,6.0,62,0.00,,,0.48,meteobridge,2013-10-07 15:36:00,
2013-10-07 11:41:00,60.4,46.9,29.96,WSW,258,0.0,6.0,61,0.00,,,0.48,meteobridge,2013-10-07 15:41:00,
2013-10-07 11:46:00,61.0,46.6,29.96,SW,226,11.0,11.0,59,0.00,,,0.48,meteobridge,2013-10-07 15:46:00,
2013-10-07 11:51:00,61.0,46.6,29.96,SSW,210,0.9,4.9,59,0.00,,,0.48,meteobridge,2013-10-07 15:51:00,
2013-10-07 11:56:00,60.6,46.2,29.96,SSE,157,0.0,2.9,59,0.00,,,0.48,meteobridge,2013-10-07 15:56:00,
2013-10-07 12:01:00,60.3,45.9,29.96,South,189,2.9,6.0,59,0.00,,,0.48,meteobridge,2013-10-07 16:01:00,
2013-10-07 12:06:00,60.4,46.4,29.96,WSW,247,2.0,6.9,60,0.00,,,0.48,meteobridge,2013-10-07 16:06:00,
2013-10-07 12:11:00,61.3,46.0,29.96,West,261,6.9,6.9,57,0.00,,,0.48,meteobridge,2013-10-07 16:11:00,
2013-10-07 12:16:00,61.5,45.7,29.96,WSW,251,2.0,12.1,56,0.00,,,0.48,meteobridge,2013-10-07 16:16:00,
2013-10-07 12:21:00,61.3,45.0,29.96,West,268,2.0,6.9,55,0.00,,,0.48,meteobridge,2013-10-07 16:21:00,
2013-10-07 12:26:00,61.3,45.0,29.96,WSW,254,2.9,6.9,55,0.00,,,0.48,meteobridge,2013-10-07 16:26:00,
2013-10-07 12:31:00,61.3,46.0,29.96,NW,312,0.0,6.0,57,0.00,,,0.48,meteobridge,2013-10-07 16:31:00,
2013-10-07 12:36:00,62.1,46.6,29.96,West,260,4.0,11.0,57,0.00,,,0.48,meteobridge,2013-10-07 16:36:00,
2013-10-07 12:41:00,62.4,46.6,29.96,SW,215,10.1,12.1,56,0.00,,,0.48,meteobridge,2013-10-07 16:41:00,
2013-10-07 12:46:00,62.4,45.1,29.97,SW,227,2.9,11.0,53,0.00,,,0.48,meteobridge,2013-10-07 16:46:00,
2013-10-07 12:51:00,62.4,46.0,29.97,West,274,8.1,8.1,55,0.00,,,0.48,meteobridge,2013-10-07 16:51:00,
2013-10-07 12:56:00,62.2,45.3,29.97,WSW,250,2.0,8.1,54,0.00,,,0.48,meteobridge,2013-10-07 16:56:00,
2013-10-07 13:01:00,61.5,44.8,29.97,SW,224,2.9,14.1,54,0.00,,,0.48,meteobridge,2013-10-07 17:01:00,
2013-10-07 13:06:00,62.1,46.2,29.97,NW,304,4.9,6.9,56,0.00,,,0.48,meteobridge,2013-10-07 17:06:00,
2013-10-07 13:11:00,61.5,45.1,29.97,WNW,288,6.0,10.1,55,0.00,,,0.48,meteobridge,2013-10-07 17:11:00,
2013-10-07 13:16:00,61.2,44.4,29.97,WNW,288,4.9,8.1,54,0.00,,,0.48,meteobridge,2013-10-07 17:16:00,
2013-10-07 13:21:00,61.3,44.1,29.97,West,264,6.9,6.9,53,0.00,,,0.48,meteobridge,2013-10-07 17:21:00,
2013-10-07 13:26:00,62.1,44.2,29.97,West,281,6.9,13.0,52,0.00,,,0.48,meteobridge,2013-10-07 17:26:00,
2013-10-07 13:31:00,62.8,45.3,29.97,SW,217,0.0,8.1,53,0.00,,,0.48,meteobridge,2013-10-07 17:31:00,
2013-10-07 13:36:00,63.5,45.5,29.97,WSW,251,6.9,13.0,52,0.00,,,0.48,meteobridge,2013-10-07 17:36:00,
2013-10-07 13:41:00,63.3,45.0,29.97,West,277,11.0,16.1,51,0.00,,,0.48,meteobridge,2013-10-07 17:41:00,
2013-10-07 13:46:00,63.1,44.8,29.96,WNW,285,4.9,10.1,51,0.00,,,0.48,meteobridge,2013-10-07 17:46:00,
2013-10-07 13:51:00,62.6,44.8,29.96,South,175,10.1,10.1,52,0.00,,,0.48,meteobridge,2013-10-07 17:51:00,
2013-10-07 13:56:00,63.0,45.5,29.96,WSW,247,6.0,13.0,53,0.00,,,0.48,meteobridge,2013-10-07 17:56:00,
2013-10-07 14:01:00,63.5,45.0,29.96,WNW,284,4.9,11.0,51,0.00,,,0.48,meteobridge,2013-10-07 18:01:00,
2013-10-07 14:06:00,63.3,43.9,29.96,SSE,168,6.0,13.0,49,0.00,,,0.48,meteobridge,2013-10-07 18:06:00,
2013-10-07 14:11:00,63.0,44.1,29.96,WSW,246,4.0,12.1,50,0.00,,,0.48,meteobridge,2013-10-07 18:11:00,
2013-10-07 14:16:00,63.0,44.6,29.96,WSW,250,4.9,13.0,51,0.00,,,0.48,meteobridge,2013-10-07 18:16:00,
2013-10-07 14:21:00,63.3,44.4,29.96,West,268,2.0,8.9,50,0.00,,,0.48,meteobridge,2013-10-07 18:21:00,
2013-10-07 14:26:00,64.0,44.4,29.96,WSW,244,4.9,12.1,49,0.00,,,0.48,meteobridge,2013-10-07 18:26:00,
2013-10-07 14:31:00,64.2,44.6,29.96,SSW,202,2.9,11.0,49,0.00,,,0.48,meteobridge,2013-10-07 18:31:00,
2013-10-07 14:36:00,64.2,45.1,29.96,WSW,246,6.0,11.0,50,0.00,,,0.48,meteobridge,2013-10-07 18:36:00,
2013-10-07 14:41:00,65.1,46.0,29.96,NW,312,0.9,6.9,50,0.00,,,0.48,meteobridge,2013-10-07 18:41:00,
2013-10-07 14:46:00,65.1,44.4,29.96,WNW,298,4.0,8.1,47,0.00,,,0.48,meteobridge,2013-10-07 18:46:00,
2013-10-07 14:51:00,64.9,44.2,29.96,WSW,253,2.9,8.9,47,0.00,,,0.48,meteobridge,2013-10-07 18:51:00,
2013-10-07 14:56:00,65.1,45.0,29.96,SW,223,0.0,11.0,48,0.00,,,0.48,meteobridge,2013-10-07 18:56:00,
2013-10-07 15:01:00,65.7,45.5,29.96,WSW,254,2.9,6.9,48,0.00,,,0.48,meteobridge,2013-10-07 19:01:00,
2013-10-07 15:06:00,65.3,44.1,29.96,NNW,329,4.9,11.0,46,0.00,,,0.48,meteobridge,2013-10-07 19:06:00,
2013-10-07 15:11:00,65.7,46.0,29.96,West,267,6.9,8.1,49,0.00,,,0.48,meteobridge,2013-10-07 19:11:00,
2013-10-07 15:16:00,66.0,45.7,29.96,SSW,212,0.0,4.9,48,0.00,,,0.48,meteobridge,2013-10-07 19:16:00,
2013-10-07 15:21:00,65.5,43.5,29.96,West,265,10.1,10.1,45,0.00,,,0.48,meteobridge,2013-10-07 19:21:00,
2013-10-07 15:26:00,65.7,43.7,29.96,SSE,164,2.9,11.0,45,0.00,,,0.48,meteobridge,2013-10-07 19:26:00,
2013-10-07 15:31:00,65.3,44.1,29.97,SSE,157,2.0,6.9,46,0.00,,,0.48,meteobridge,2013-10-07 19:31:00,
2013-10-07 15:36:00,65.1,45.0,29.97,NW,312,0.0,4.9,48,0.00,,,0.48,meteobridge,2013-10-07 19:36:00,
2013-10-07 15:41:00,65.7,45.5,29.97,North,353,0.9,0.9,48,0.00,,,0.48,meteobridge,2013-10-07 19:41:00,
2013-10-07 15:46:00,66.4,45.0,29.97,South,188,0.0,4.9,46,0.00,,,0.48,meteobridge,2013-10-07 19:46:00,
2013-10-07 15:51:00,66.7,44.8,29.97,SSW,205,4.9,12.1,45,0.00,,,0.48,meteobridge,2013-10-07 19:51:00,
2013-10-07 15:56:00,65.8,44.4,29.97,West,264,2.0,10.1,46,0.00,,,0.48,meteobridge,2013-10-07 19:56:00,
2013-10-07 16:01:00,65.8,44.4,29.97,NNW,339,0.9,2.9,46,0.00,,,0.48,meteobridge,2013-10-07 20:01:00,
2013-10-07 16:06:00,66.0,44.1,29.97,West,274,0.0,2.9,45,0.00,,,0.48,meteobridge,2013-10-07 20:06:00,
2013-10-07 16:11:00,66.4,45.5,29.97,SSE,154,0.0,2.0,47,0.00,,,0.48,meteobridge,2013-10-07 20:11:00,
2013-10-07 16:17:00,66.0,44.6,29.97,West,274,0.0,6.9,46,0.00,,,0.48,meteobridge,2013-10-07 20:17:00,
2013-10-07 16:22:00,65.5,44.2,29.97,WNW,285,0.0,11.0,46,0.00,,,0.48,meteobridge,2013-10-07 20:22:00,
2013-10-07 16:27:00,64.2,44.1,29.97,WNW,285,0.0,8.1,48,0.00,,,0.48,meteobridge,2013-10-07 20:27:00,
2013-10-07 16:32:00,64.2,44.1,29.98,WSW,248,6.9,6.9,48,0.00,,,0.48,meteobridge,2013-10-07 20:32:00,
2013-10-07 16:37:00,64.8,43.5,29.98,West,271,2.0,4.0,46,0.00,,,0.48,meteobridge,2013-10-07 20:37:00,
2013-10-07 16:42:00,65.3,44.6,29.98,West,274,0.9,4.0,47,0.00,,,0.48,meteobridge,2013-10-07 20:42:00,
2013-10-07 16:47:00,64.9,43.7,29.99,WSW,248,2.0,2.0,46,0.00,,,0.48,meteobridge,2013-10-07 20:47:00,
2013-10-07 16:52:00,64.8,44.6,29.99,West,275,2.9,4.0,48,0.00,,,0.48,meteobridge,2013-10-07 20:52:00,
2013-10-07 16:57:00,64.9,44.2,29.99,SSW,210,0.0,6.9,47,0.00,,,0.48,meteobridge,2013-10-07 20:57:00,
2013-10-07 17:02:00,64.9,44.2,29.99,WSW,246,0.0,6.0,47,0.00,,,0.48,meteobridge,2013-10-07 21:02:00,
2013-10-07 17:07:00,64.8,44.1,29.99,WNW,282,0.9,2.0,47,0.00,,,0.48,meteobridge,2013-10-07 21:07:00,
2013-10-07 17:12:00,64.2,43.5,29.99,NW,306,0.9,4.9,47,0.00,,,0.48,meteobridge,2013-10-07 21:12:00,
2013-10-07 17:18:00,64.6,43.9,29.99,West,271,0.0,6.9,47,0.00,,,0.48,meteobridge,2013-10-07 21:18:00,
2013-10-07 17:23:00,64.2,44.1,29.99,WSW,253,0.0,6.0,48,0.00,,,0.48,meteobridge,2013-10-07 21:23:00,
2013-10-07 17:28:00,64.2,43.5,29.99,WSW,251,6.0,6.0,47,0.00,,,0.48,meteobridge,2013-10-07 21:28:00,
2013-10-07 17:33:00,63.7,43.7,30.00,WNW,285,2.0,4.9,48,0.00,,,0.48,meteobridge,2013-10-07 21:33:00,
2013-10-07 17:38:00,63.5,44.1,30.00,West,277,0.0,0.9,49,0.00,,,0.48,meteobridge,2013-10-07 21:38:00,
2013-10-07 17:43:00,63.9,43.7,30.00,West,281,0.9,4.0,48,0.00,,,0.48,meteobridge,2013-10-07 21:43:00,
2013-10-07 17:49:00,64.2,44.1,30.00,WNW,289,0.0,0.0,48,0.00,,,0.48,meteobridge,2013-10-07 21:49:00,
2013-10-07 17:54:00,64.6,43.9,30.00,WNW,298,0.9,2.0,47,0.00,,,0.48,meteobridge,2013-10-07 21:54:00,
2013-10-07 17:59:00,64.2,43.5,30.00,WNW,289,0.9,2.9,47,0.00,,,0.48,meteobridge,2013-10-07 21:59:00,
2013-10-07 18:04:00,64.2,43.0,30.01,WNW,288,0.9,6.0,46,0.00,,,0.48,meteobridge,2013-10-07 22:04:00,
2013-10-07 18:09:00,64.2,43.5,30.01,West,271,2.9,4.9,47,0.00,,,0.48,meteobridge,2013-10-07 22:09:00,
2013-10-07 18:15:00,64.2,43.5,30.01,West,272,0.9,2.0,47,0.00,,,0.48,meteobridge,2013-10-07 22:15:00,
2013-10-07 18:20:00,64.0,43.3,30.01,WNW,288,0.0,2.0,47,0.00,,,0.48,meteobridge,2013-10-07 22:20:00,
2013-10-07 18:25:00,64.0,43.3,30.01,WNW,288,0.0,0.0,47,0.00,,,0.48,meteobridge,2013-10-07 22:25:00,
2013-10-07 18:30:00,63.7,43.2,30.01,WNW,288,0.0,0.9,47,0.00,,,0.48,meteobridge,2013-10-07 22:30:00,
2013-10-07 18:35:00,63.5,43.0,30.01,WNW,288,0.0,2.9,47,0.00,,,0.48,meteobridge,2013-10-07 22:35:00,
2013-10-07 18:40:00,63.1,43.2,30.01,NW,305,2.0,2.0,48,0.00,,,0.48,meteobridge,2013-10-07 22:40:00,
2013-10-07 18:46:00,63.0,43.5,30.02,NW,305,0.0,0.0,49,0.00,,,0.48,meteobridge,2013-10-07 22:46:00,
2013-10-07 18:51:00,62.8,44.4,30.02,NW,305,0.0,0.0,51,0.00,,,0.48,meteobridge,2013-10-07 22:51:00,
2013-10-07 18:56:00,62.2,45.9,30.02,NW,305,0.0,0.0,55,0.00,,,0.48,meteobridge,2013-10-07 22:56:00,
2013-10-07 19:01:00,61.3,46.0,30.03,NW,305,0.0,0.0,57,0.00,,,0.48,meteobridge,2013-10-07 23:01:00,
2013-10-07 19:06:00,59.9,46.4,30.03,NW,305,0.0,0.9,61,0.00,,,0.48,meteobridge,2013-10-07 23:06:00,
2013-10-07 19:11:00,58.8,47.1,30.03,NW,305,0.0,0.0,65,0.00,,,0.48,meteobridge,2013-10-07 23:11:00,
2013-10-07 19:17:00,58.1,47.7,30.04,NW,305,0.0,0.0,68,0.00,,,0.48,meteobridge,2013-10-07 23:17:00,
2013-10-07 19:22:00,57.2,47.8,30.04,NW,305,0.0,0.0,71,0.00,,,0.48,meteobridge,2013-10-07 23:22:00,
2013-10-07 19:27:00,56.7,48.0,30.04,NW,305,0.0,0.0,73,0.00,,,0.48,meteobridge,2013-10-07 23:27:00,
2013-10-07 19:32:00,55.9,48.2,30.05,NW,305,0.0,0.0,75,0.00,,,0.48,meteobridge,2013-10-07 23:32:00,
2013-10-07 19:37:00,55.2,47.8,30.05,NW,305,0.0,0.0,76,0.00,,,0.48,meteobridge,2013-10-07 23:37:00,
2013-10-07 19:42:00,54.7,48.0,30.05,NW,305,0.0,0.0,78,0.00,,,0.48,meteobridge,2013-10-07 23:42:00,
2013-10-07 19:47:00,54.1,47.8,30.06,NW,305,0.0,0.0,79,0.00,,,0.48,meteobridge,2013-10-07 23:47:00,
2013-10-07 19:52:00,54.0,48.0,30.06,NW,305,0.0,0.0,80,0.00,,,0.48,meteobridge,2013-10-07 23:52:00,
2013-10-07 19:57:00,53.2,47.5,30.06,NW,305,0.0,0.0,81,0.00,,,0.48,meteobridge,2013-10-07 23:57:00,
2013-10-07 20:03:00,52.9,47.8,30.07,NW,305,0.0,0.0,83,0.00,,,0.48,meteobridge,2013-10-08 00:03:00,
2013-10-07 20:08:00,52.5,47.8,30.07,NW,305,0.0,0.0,84,0.00,,,0.48,meteobridge,2013-10-08 00:08:00,
2013-10-07 20:13:00,52.2,47.5,30.07,NW,305,0.0,0.0,84,0.00,,,0.48,meteobridge,2013-10-08 00:13:00,
2013-10-07 20:19:00,52.0,47.7,30.08,NW,305,0.0,0.0,85,0.00,,,0.48,meteobridge,2013-10-08 00:19:00,
2013-10-07 20:24:00,51.6,47.5,30.08,NW,305,0.0,0.0,86,0.00,,,0.48,meteobridge,2013-10-08 00:24:00,
2013-10-07 20:29:00,51.4,47.7,30.08,NW,305,0.0,0.0,87,0.00,,,0.48,meteobridge,2013-10-08 00:29:00,
2013-10-07 20:34:00,51.1,47.3,30.09,NW,305,0.0,0.0,87,0.00,,,0.48,meteobridge,2013-10-08 00:34:00,
2013-10-07 20:44:00,50.7,47.3,30.09,NW,305,0.0,0.0,88,0.00,,,0.48,meteobridge,2013-10-08 00:44:00,
2013-10-07 20:49:00,50.5,47.5,30.09,NW,305,0.0,0.0,89,0.00,,,0.48,meteobridge,2013-10-08 00:49:00,
2013-10-07 20:54:00,50.2,47.1,30.09,NW,305,0.0,0.0,89,0.00,,,0.48,meteobridge,2013-10-08 00:54:00,
2013-10-07 20:59:00,50.2,47.1,30.10,NW,305,0.0,0.0,89,0.00,,,0.48,meteobridge,2013-10-08 00:59:00,
2013-10-07 21:05:00,49.8,46.9,30.10,NW,305,0.0,0.0,90,0.00,,,0.48,meteobridge,2013-10-08 01:05:00,
2013-10-07 21:10:00,49.8,46.9,30.10,NW,305,0.0,0.0,90,0.00,,,0.48,meteobridge,2013-10-08 01:10:00,
2013-10-07 21:15:00,49.6,47.1,30.11,NW,305,0.0,0.0,91,0.00,,,0.48,meteobridge,2013-10-08 01:15:00,
2013-10-07 21:21:00,49.5,46.9,30.11,NW,305,0.0,0.0,91,0.00,,,0.48,meteobridge,2013-10-08 01:21:00,
2013-10-07 21:26:00,49.3,46.8,30.11,NW,305,0.0,0.0,91,0.00,,,0.48,meteobridge,2013-10-08 01:26:00,
2013-10-07 21:31:00,49.1,46.6,30.11,NW,305,0.0,0.0,91,0.00,,,0.48,meteobridge,2013-10-08 01:31:00,
2013-10-07 21:36:00,48.9,46.8,30.11,NW,305,0.0,0.0,92,0.00,,,0.48,meteobridge,2013-10-08 01:36:00,
2013-10-07 21:41:00,48.7,46.6,30.11,NW,305,0.0,0.0,92,0.00,,,0.48,meteobridge,2013-10-08 01:41:00,
2013-10-07 21:47:00,48.6,46.4,30.12,NW,305,0.0,0.0,92,0.00,,,0.48,meteobridge,2013-10-08 01:47:00,
2013-10-07 21:52:00,48.6,46.6,30.12,NW,305,0.0,0.0,93,0.00,,,0.48,meteobridge,2013-10-08 01:52:00,
2013-10-07 21:57:00,48.4,46.4,30.12,NW,305,0.0,0.0,93,0.00,,,0.48,meteobridge,2013-10-08 01:57:00,
2013-10-07 22:02:00,48.2,46.2,30.12,NW,305,0.0,0.0,93,0.00,,,0.48,meteobridge,2013-10-08 02:02:00,
2013-10-07 22:07:00,48.0,46.0,30.12,NW,305,0.0,0.0,93,0.00,,,0.48,meteobridge,2013-10-08 02:07:00,
2013-10-07 22:12:00,48.0,46.4,30.12,NW,305,0.0,0.0,94,0.00,,,0.48,meteobridge,2013-10-08 02:12:00,
2013-10-07 22:18:00,48.0,46.4,30.12,NW,305,0.0,0.0,94,0.00,,,0.48,meteobridge,2013-10-08 02:18:00,
2013-10-07 22:23:00,48.0,46.4,30.12,NW,305,0.0,0.0,94,0.00,,,0.48,meteobridge,2013-10-08 02:23:00,
2013-10-07 22:28:00,47.7,46.0,30.12,NW,305,0.0,0.0,94,0.00,,,0.48,meteobridge,2013-10-08 02:28:00,
2013-10-07 22:33:00,47.7,46.0,30.13,NW,305,0.0,0.0,94,0.00,,,0.48,meteobridge,2013-10-08 02:33:00,
2013-10-07 22:38:00,47.5,45.9,30.13,NW,305,0.0,0.0,94,0.00,,,0.48,meteobridge,2013-10-08 02:38:00,
2013-10-07 22:43:00,47.3,45.7,30.13,NW,305,0.0,0.0,94,0.00,,,0.48,meteobridge,2013-10-08 02:43:00,
2013-10-07 22:48:00,47.1,45.5,30.13,NW,305,0.0,0.0,94,0.00,,,0.48,meteobridge,2013-10-08 02:48:00,
2013-10-07 22:54:00,47.3,45.9,30.13,NW,305,0.0,0.0,95,0.00,,,0.48,meteobridge,2013-10-08 02:54:00,
2013-10-07 22:59:00,47.1,45.7,30.13,NW,305,0.0,0.0,95,0.00,,,0.48,meteobridge,2013-10-08 02:59:00,
2013-10-07 23:04:00,46.9,45.5,30.13,NW,305,0.0,0.0,95,0.00,,,0.48,meteobridge,2013-10-08 03:04:00,
2013-10-07 23:09:00,46.8,45.3,30.13,NW,305,0.0,0.0,95,0.00,,,0.48,meteobridge,2013-10-08 03:09:00,
2013-10-07 23:14:00,46.8,45.3,30.14,NW,305,0.0,0.0,95,0.00,,,0.48,meteobridge,2013-10-08 03:14:00,
2013-10-07 23:19:00,46.6,45.1,30.14,NW,305,0.0,0.0,95,0.00,,,0.48,meteobridge,2013-10-08 03:19:00,
2013-10-07 23:24:00,46.4,45.0,30.14,NW,305,0.0,0.0,95,0.00,,,0.48,meteobridge,2013-10-08 03:24:00,
2013-10-07 23:30:00,46.4,45.0,30.14,NW,305,0.0,0.0,95,0.00,,,0.48,meteobridge,2013-10-08 03:30:00,
2013-10-07 23:35:00,46.4,45.0,30.14,NW,305,0.0,0.0,95,0.00,,,0.48,meteobridge,2013-10-08 03:35:00,
2013-10-07 23:40:00,46.2,44.8,30.14,NW,305,0.0,0.0,95,0.00,,,0.48,meteobridge,2013-10-08 03:40:00,
2013-10-07 23:45:00,46.0,44.6,30.14,NW,305,0.0,0.0,95,0.00,,,0.48,meteobridge,2013-10-08 03:45:00,
2013-10-07 23:50:00,46.0,44.6,30.14,NW,305,0.0,0.0,95,0.00,,,0.48,meteobridge,2013-10-08 03:50:00,
2013-10-07 23:55:00,46.0,45.0,30.14,NW,305,0.0,0.9,96,0.00,,,0.48,meteobridge,2013-10-08 03:55:00,